Terminal Aerodrome Forecast
Issued by NWS La Crosse, WI

Home | Current Version | Previous Version | Text Only | Print | Product List | Glossary On
Versions: 1 2 3 4 5 6 7 8 9 10 11 12 13 14 15 16 17 18 19 20 21 22 23 24 25 26 27 28 29 30 31 32 33 34 35 36 37 38 39 40 41 42 43 44 45 46 47 48 49 50
000
FTUS43 KARX 222139 AAB
TAFRST
TAF AMD
KRST 222139Z 2222/2318 11014KT 3SM -RA BR OVC008
     FM230000 09013KT 3SM -RA BR OVC006
     FM230600 06014KT 1SM -SN BR OVC004
     FM231200 03012KT 1SM -SN BR OVC004=

USA.gov is the U.S. government's official web portal to all federal, state and local government web resources and services.